Hourly Data Report for October 18, 2013

All times are specified in Local Standard Time (LST). Add 1 hour to adjust for Daylight Saving Time where and when it is observed.

RANKIN INLET A
NUNAVUT

62°48'38.000" N
92°06'53.000" W
32.30 m
2303405
71083
YRT

Download Data

Hourly Data (October 2013)
Hourly Data Report for October 18, 2013
Temp Definition
°C
Dew Point Temp Definition
°C
Rel Hum Definition
%
Wind Dir Definition
10's deg

Wind Spd Definition
km/h
Visibility Definition
km
Stn Press Definition
kPa
Hmdx Definition


Wind Chill Definition


Weather Definition


TIME
00:00 Legend Double Dagger -6.7 -8.8 85 32 36 24.1 99.41   -16 Mainly Clear
01:00 Legend Double Dagger -6.9 -8.9 86 31 30 24.1 99.46   -15 LegendNANA
02:00 Legend Double Dagger -6.7 -9.0 84 31 31 24.1 99.49   -15 LegendNANA
03:00 Legend Double Dagger -5.9 -8.3 83 32 39 24.1 99.50   -15 Mainly Clear
04:00 Legend Double Dagger -5.2 -7.5 84 32 33 24.1 99.55   -14 LegendNANA
05:00 Legend Double Dagger -5.4 -7.7 84 30 29 24.1 99.60   -13 LegendNANA
06:00 Legend Double Dagger -5.0 -7.5 83 30 31 24.1 99.65   -13 Snow
07:00 Legend Double Dagger -5.1 -7.2 85 29 36 24.1 99.68   -14 Snow
08:00 Legend Double Dagger -5.3 -7.4 85 29 30 24.1 99.72   -13 Snow
09:00 Legend Double Dagger -5.3 -7.3 86 29 27 24.1 99.72   -13 Snow
10:00 Legend Double Dagger -4.8 -7.1 84 29 35 24.1 99.76   -13 Snow
11:00 Legend Double Dagger -4.5 -7.0 83 29 31 24.1 99.84   -12 Snow
12:00 Legend Double Dagger -4.2 -6.8 82 28 30 24.1 99.87   -12 Snow
13:00 Legend Double Dagger -4.1 -6.7 82 28 29 24.1 99.91   -12 LegendNANA
14:00 Legend Double Dagger -3.8 -6.4 82 28 30 24.1 99.93   -11 Snow
15:00 Legend Double Dagger -3.8 -6.3 83 28 27 24.1 99.97   -11 Snow
16:00 Legend Double Dagger -3.9 -5.9 86 27 24 16.1 100.01   -11 Snow
17:00 Legend Double Dagger -3.9 -5.5 89 26 23 4.8 100.06   -11 Snow
18:00 Legend Double Dagger -3.9 -5.5 89 26 27 4.0 100.08   -11 Snow
19:00 Legend Double Dagger -4.0 -5.4 90 25 25 6.4 100.10   -11 Snow
20:00 Legend Double Dagger -4.0 -5.3 91 25 26 8.1 100.12   -11 Snow
21:00 Legend Double Dagger -3.8 -5.1 91 25 24 8.1 100.13   -11 Snow
22:00 Legend Double Dagger -3.6 -4.7 92 25 19 8.1 100.14   -10 Snow
23:00 Legend Double Dagger -3.9 -4.9 93 23 22 8.1 100.18   -10 Snow

Notes on Data Quality.

Legend

  • E = Estimated
  • M = Missing
  • NA = Not Available
  • ‡ = Partner data that is not subject to review by the National Climate Archives
Date modified: